Hourly Data Report for May 22, 2012

All times are specified in Local Standard Time (LST). Add 1 hour to adjust for Daylight Saving Time where and when it is observed.

DEER LAKE A
NEWFOUNDLAND

49°12'33.000" N
57°23'40.000" W
21.90 m
8401502
71809
YDF

Download Data

Hourly Data (May 2012)
Hourly Data Report for May 22, 2012
Temp Definition
°C
Dew Point Temp Definition
°C
Rel Hum Definition
%
Wind Dir Definition
10's deg

Wind Spd Definition
km/h
Visibility Definition
km
Stn Press Definition
kPa
Hmdx Definition


Wind Chill Definition


Weather Definition


TIME
00:30 Legend Double Dagger 8.8 6.4 85   0 10.0 101.61     LegendNANA
01:30 Legend Double Dagger 9.5 7.0 84 19 9 10.0 101.58     LegendNANA
02:30 Legend Double Dagger 9.0 6.8 86 21 6 10.0 101.55     Mainly Clear
03:30 Legend Double Dagger 6.9 5.5 91 21 5 10.0 101.53     LegendNANA
04:30 Legend Double Dagger 7.7 6.0 89 23 5 10.0 101.53     LegendNANA
05:30 Legend Double Dagger 8.5 6.6 88 21 6 10.0 101.51     Mostly Cloudy
06:30 Legend Double Dagger 13.6 9.3 75 21 11 10.0 101.47     LegendNANA
07:30 Legend Double Dagger 17.3 9.3 59 21 17 10.0 101.47     LegendNANA
08:30 Legend Double Dagger 20.5 9.9 50 23 20 10.0 101.45     Mainly Clear
09:30 Legend Double Dagger 22.7 10.0 44 22 24 10.0 101.43     LegendNANA
10:30 Legend Double Dagger 23.6 10.5 43 22 23 10.0 101.44 25   LegendNANA
11:30 Legend Double Dagger 24.5 8.3 35 25 18 10.0 101.45 25   Mainly Clear
12:30 Legend Double Dagger 24.9 7.8 33 28 16 10.0 101.40 25   LegendNANA
13:30 Legend Double Dagger 25.1 8.4 34 26 15 10.0 101.34 26   LegendNANA
14:30 Legend Double Dagger 23.8 8.4 37 26 15 10.0 101.33     Mostly Cloudy
15:30 Legend Double Dagger 25.9 9.5 35 21 10 10.0 101.24 27   LegendNANA
16:30 Legend Double Dagger 25.9 9.5 35 23 28 10.0 101.19 27   LegendNANA
17:30 Legend Double Dagger 23.6 8.7 38 23 32 10.0 101.18     Cloudy
18:30 Legend Double Dagger 22.7 6.2 34 23 22 10.0 101.19     LegendNANA
19:30 Legend Double Dagger 18.5 7.1 47   0 10.0 101.22     LegendNANA
20:30 Legend Double Dagger 16.2 8.0 58   0 10.0 101.25     Mostly Cloudy
21:30 Legend Double Dagger 15.7 9.7 67 21 5 10.0 101.22     LegendNANA
22:30 Legend Double Dagger 15.6 10.8 73   0 10.0 101.20     LegendNANA
23:30 Legend Double Dagger 15.0 10.9 76 14 5 10.0 101.15     Mostly Cloudy

Notes on Data Quality.

Legend

  • E = Estimated
  • M = Missing
  • NA = Not Available
  • ‡ = Partner data that is not subject to review by the National Climate Archives
Date modified: